Location: Cz?stochówka
(50.8142°N, 19.0915°E)
Time: 20:10:29
(UTC+00:00)

BREEZE M DEB (TANK) - Pass Details

Date: 13 January 2026
Orbit: 287 x 11207 km, 49.5° (Epoch: 12 February)

Event Time Altitude Azimuth Distance (km) Brightness Sun altitude
Exits shadow 05:21:20 15° 260° (W) 1,429 3.9 -12.1°
Maximum altitude 05:23:50 36° 198° (SSW) 1,155 4.0 -11.7°
Drops below altitude 10° 05:31:22 10° 135° (SE) 4,061 7.9 -10.6°
Sets 05:37:31 0° 130° (SE) 6,576 9.4 -9.7°
